| time (UTC) | temp F | wind direction | speed knots | gust knots | rain 1hr in | rain 24hr in | rain mn in | humidity % | barometer mb |
| 20260905190103 | 95 | 299 | 1.7 | 4.3 | 0.00 | 0.00 | 0.00 | 47 | 1012.1 |
| 20260905184609 | 96 | 274 | 2.6 | 8.7 | 0.00 | 0.00 | 0.00 | 46 | 1012.3 |
| 20260905183114 | 92 | 32 | 3.5 | 8.7 | 0.00 | 0.00 | 0.00 | 48 | 1012.5 |
| 20260905181558 | 94 | 27 | 3.5 | 9.6 | 0.00 | 0.00 | 0.00 | 46 | 1012.6 |
| 20260905180057 | 96 | 250 | 1.7 | 5.2 | 0.00 | 0.00 | 0.00 | 46 | 1012.8 |
| 20260905174601 | 93 | 82 | 0.9 | 4.3 | 0.00 | 0.00 | 0.00 | 51 | 1013.0 |
| 20260905173056 | 92 | 68 | 0.9 | 6.1 | 0.00 | 0.00 | 0.00 | 52 | 1013.2 |
| 20260905171604 | 93 | 55 | 1.7 | 7.0 | 0.00 | 0.00 | 0.00 | 51 | 1013.6 |
| 20260905170108 | 92 | 0 | 0.0 | 7.0 | 0.00 | 0.00 | 0.00 | 53 | 1013.8 |
| 20260905164605 | 89 | 109 | 0.9 | 6.1 | 0.00 | 0.00 | 0.00 | 56 | 1013.9 |
| 20260905163104 | 89 | 44 | 1.7 | 7.0 | 0.00 | 0.00 | 0.00 | 55 | 1013.9 |
| 20260905161602 | 89 | 0 | 1.7 | 6.1 | 0.00 | 0.00 | 0.00 | 56 | 1013.9 |
| 20260905154554 | 87 | 147 | 2.6 | 6.1 | 0.00 | 0.00 | 0.00 | 58 | 1014.5 |
| 20260905153102 | 86 | 101 | 1.7 | 5.2 | 0.00 | 0.00 | 0.00 | 60 | 1014.4 |
| 20260905151558 | 85 | 46 | 2.6 | 5.2 | 0.00 | 0.00 | 0.00 | 60 | 1014.4 |
| 20260905150100 | 84 | 147 | 1.7 | 6.1 | 0.00 | 0.00 | 0.00 | 62 | 1014.2 |
| 20260905144553 | 83 | 49 | 0.9 | 7.0 | 0.00 | 0.00 | 0.00 | 67 | 1014.7 |
| 20260905143101 | 83 | 81 | 0.9 | 7.8 | 0.00 | 0.00 | 0.00 | 67 | 1014.2 |
| 20260905141554 | 83 | 22 | 1.7 | 7.0 | 0.00 | 0.00 | 0.00 | 65 | 1014.5 |
| 20260905140127 | 82 | 13 | 2.6 | 4.3 | 0.00 | 0.00 | 0.00 | 67 | 1014.2 |
| 20260905134604 | 81 | 0 | 0.9 | 3.5 | 0.00 | 0.00 | 0.00 | 71 | 1014.0 |
| 20260905133055 | 79 | 201 | 0.9 | 3.5 | 0.00 | 0.00 | 0.00 | 73 | 1014.1 |
| 20260905131616 | 77 | 0 | 0.0 | 0.0 | 0.00 | 0.00 | 0.00 | 75 | 1014.2 |
| 20260905130058 | 76 | 0 | 0.0 | 0.0 | 0.00 | 0.00 | 0.00 | 78 | 1014.2 |
| 20260905124605 | 75 | 0 | 0.0 | 0.0 | 0.00 | 0.00 | 0.00 | 81 | 1014.2 |
| 20260905123110 | 74 | 0 | 0.0 | 0.0 | 0.00 | 0.00 | 0.00 | 81 | 1014.3 |
| 20260905121558 | 73 | 0 | 0.0 | 0.0 | 0.00 | 0.00 | 0.00 | 81 | 1014.3 |
| 20260905120058 | 73 | 0 | 0.0 | 0.0 | 0.00 | 0.00 | 0.00 | 81 | 1014.2 |
| 20260905114556 | 73 | 0 | 0.0 | 0.0 | 0.00 | 0.00 | 0.00 | 80 | 1014.0 |
| 20260905113051 | 73 | 0 | 0.0 | 0.0 | 0.00 | 0.00 | 0.00 | 80 | 1013.8 |
| 20260905111603 | 73 | 0 | 0.0 | 0.0 | 0.00 | 0.00 | 0.00 | 80 | 1013.6 |
| 20260905110056 | 73 | 0 | 0.0 | 0.0 | 0.00 | 0.00 | 0.00 | 79 | 1013.4 |
| 20260905104609 | 73 | 0 | 0.0 | 0.0 | 0.00 | 0.00 | 0.00 | 79 | 1013.4 |
| 20260905103100 | 74 | 0 | 0.0 | 0.0 | 0.00 | 0.00 | 0.00 | 79 | 1013.4 |
| 20260905101604 | 74 | 0 | 0.0 | 0.0 | 0.00 | 0.00 | 0.00 | 79 | 1013.8 |
| 20260905094557 | 74 | 0 | 0.0 | 0.0 | 0.00 | 0.00 | 0.00 | 78 | 1013.6 |
| 20260905093058 | 74 | 0 | 0.0 | 0.0 | 0.00 | 0.00 | 0.00 | 78 | 1013.4 |
| 20260905091558 | 75 | 0 | 0.0 | 0.0 | 0.00 | 0.00 | 0.00 | 77 | 1013.2 |
| 20260905090123 | 75 | 0 | 0.0 | 0.0 | 0.00 | 0.00 | 0.00 | 76 | 1013.2 |
| 20260905084611 | 75 | 0 | 0.0 | 0.0 | 0.00 | 0.00 | 0.00 | 76 | 1013.0 |
| 20260905083055 | 75 | 0 | 0.0 | 0.0 | 0.00 | 0.00 | 0.00 | 76 | 1012.8 |
| 20260905081555 | 75 | 0 | 0.0 | 0.0 | 0.00 | 0.00 | 0.00 | 76 | 1012.9 |
| 20260905080056 | 75 | 0 | 0.0 | 0.0 | 0.00 | 0.00 | 0.00 | 77 | 1013.0 |
| 20260905074551 | 75 | 0 | 0.0 | 0.0 | 0.00 | 0.00 | 0.00 | 78 | 1013.2 |
| 20260905073101 | 76 | 0 | 0.0 | 0.0 | 0.00 | 0.00 | 0.00 | 78 | 1013.2 |
| 20260905071555 | 76 | 0 | 0.0 | 0.0 | 0.00 | 0.00 | 0.00 | 78 | 1013.1 |
| 20260905070058 | 76 | 0 | 0.0 | 0.0 | 0.00 | 0.00 | 0.00 | 77 | 1013.2 |
| 20260905064559 | 77 | 0 | 0.0 | 0.0 | 0.00 | 0.00 | 0.00 | 77 | 1013.3 |
| 20260905063057 | 77 | 0 | 0.0 | 0.0 | 0.00 | 0.00 | 0.00 | 76 | 1013.4 |
| 20260905061556 | 78 | 0 | 0.0 | 0.0 | 0.00 | 0.00 | 0.00 | 74 | 1013.7 |
| 20260905060100 | 78 | 0 | 0.0 | 0.0 | 0.00 | 0.00 | 0.00 | 74 | 1013.6 |
| 20260905054555 | 78 | 0 | 0.0 | 0.0 | 0.00 | 0.00 | 0.00 | 73 | 1013.7 |
| 20260905053102 | 79 | 0 | 0.0 | 0.0 | 0.00 | 0.00 | 0.00 | 73 | 1013.9 |
| 20260905051554 | 79 | 0 | 0.0 | 0.0 | 0.00 | 0.00 | 0.00 | 71 | 1013.9 |
| 20260905044554 | 80 | 196 | 0.9 | 2.6 | 0.00 | 0.00 | 0.00 | 70 | 1013.9 |
| 20260905043059 | 80 | 209 | 1.7 | 4.3 | 0.00 | 0.00 | 0.00 | 70 | 1013.7 |
| 20260905041600 | 80 | 221 | 0.9 | 2.6 | 0.00 | 0.00 | 0.00 | 70 | 1013.9 |
| 20260905040053 | 80 | 192 | 2.6 | 6.1 | 0.00 | 0.00 | 0.00 | 69 | 1013.9 |
| 20260905034609 | 81 | 214 | 1.7 | 5.2 | 0.00 | 0.00 | 0.00 | 69 | 1013.9 |
| 20260905033109 | 81 | 0 | 0.0 | 2.6 | 0.00 | 0.00 | 0.00 | 67 | 1013.9 |
| 20260905031600 | 82 | 174 | 1.7 | 4.3 | 0.00 | 0.00 | 0.00 | 66 | 1014.1 |
| 20260905030051 | 82 | 207 | 1.7 | 4.3 | 0.00 | 0.00 | 0.00 | 65 | 1013.9 |
| 20260905024557 | 83 | 0 | 0.0 | 0.0 | 0.00 | 0.00 | 0.00 | 65 | 1013.9 |
| 20260905023056 | 83 | 0 | 0.0 | 2.6 | 0.00 | 0.00 | 0.00 | 64 | 1013.9 |
| 20260905021556 | 84 | 122 | 0.0 | 2.6 | 0.00 | 0.00 | 0.00 | 63 | 1013.8 |
| 20260905020053 | 84 | 113 | 1.7 | 6.1 | 0.00 | 0.00 | 0.00 | 62 | 1013.8 |
| 20260905014557 | 84 | 122 | 2.6 | 5.2 | 0.00 | 0.00 | 0.00 | 62 | 1013.7 |
| 20260905013119 | 85 | 0 | 1.7 | 4.3 | 0.00 | 0.00 | 0.00 | 61 | 1013.4 |
| 20260905011600 | 85 | 0 | 0.0 | 2.6 | 0.00 | 0.00 | 0.00 | 61 | 1013.4 |
| 20260905010106 | 85 | 0 | 0.9 | 3.5 | 0.00 | 0.00 | 0.00 | 60 | 1013.2 |
| 20260905004647 | 87 | 0 | 0.0 | 1.7 | 0.00 | 0.00 | 0.00 | 58 | 1013.1 |
| 20260905003057 | 88 | 0 | 0.0 | 1.7 | 0.00 | 0.00 | 0.00 | 57 | 1012.9 |
| 20260905001607 | 89 | 349 | 0.0 | 3.5 | 0.00 | 0.00 | 0.00 | 53 | 1012.9 |
| 20260905000059 | 91 | 0 | 0.0 | 0.0 | 0.00 | 0.00 | 0.00 | 47 | 1013.0 |
| 20260904234603 | 93 | 0 | 0.0 | 1.7 | 0.00 | 0.00 | 0.00 | 47 | 1012.9 |
| 20260904233058 | 96 | 0 | 0.0 | 0.9 | 0.00 | 0.00 | 0.00 | 43 | 1012.9 |
| 20260904231554 | 97 | 0 | 0.0 | 1.7 | 0.00 | 0.00 | 0.00 | 42 | 1012.9 |
| 20260904230109 | 97 | 348 | 0.0 | 2.6 | 0.00 | 0.00 | 0.00 | 41 | 1012.9 |
| 20260904224559 | 96 | 0 | 0.0 | 2.6 | 0.00 | 0.00 | 0.00 | 44 | 1012.8 |
| 20260904223058 | 95 | 348 | 0.9 | 2.6 | 0.00 | 0.00 | 0.00 | 43 | 1012.9 |
| 20260904221601 | 94 | 348 | 0.9 | 4.3 | 0.00 | 0.00 | 0.00 | 44 | 1013.0 |
| 20260904220057 | 94 | 349 | 1.7 | 3.5 | 0.00 | 0.00 | 0.00 | 45 | 1013.1 |
| 20260904214612 | 94 | 349 | 0.9 | 3.5 | 0.00 | 0.00 | 0.00 | 44 | 1013.1 |
| 20260904213056 | 93 | 348 | 1.7 | 4.3 | 0.00 | 0.00 | 0.00 | 47 | 1013.2 |
| 20260904211601 | 94 | 348 | 0.9 | 3.5 | 0.00 | 0.00 | 0.00 | 45 | 1013.4 |
| 20260904210100 | 95 | 348 | 3.5 | 7.0 | 0.00 | 0.00 | 0.00 | 42 | 1013.3 |
| 20260904204557 | 97 | 0 | 0.0 | 1.7 | 0.00 | 0.00 | 0.00 | 42 | 1013.5 |
| 20260904203054 | 98 | 292 | 1.7 | 7.0 | 0.00 | 0.00 | 0.00 | 40 | 1013.7 |
| 20260904201601 | 97 | 222 | 0.9 | 4.3 | 0.00 | 0.00 | 0.00 | 42 | 1014.0 |
| 20260904200107 | 95 | 360 | 0.9 | 7.8 | 0.00 | 0.00 | 0.00 | 45 | 1014.3 |
| 20260904194610 | 96 | 351 | 0.9 | 4.3 | 0.00 | 0.00 | 0.00 | 43 | 1014.5 |
| 20260904193055 | 97 | 271 | 0.0 | 2.6 | 0.00 | 0.00 | 0.00 | 43 | 1014.9 |
| 20260904191557 | 96 | 19 | 2.6 | 6.1 | 0.00 | 0.00 | 0.00 | 43 | 1015.1 |